Hourly Weather Roundup
Issued by NWS Central Illinois

Home | Current Version | Previous Version | Text Only | Print | Product List | Glossary On
Versions: 1 2 3 4 5 6 7 8 9 10 11 12 13 14 15 16 17 18 19 20 21 22 23 24 25 26 27 28 29 30 31 32 33 34 35 36 37 38 39 40 41 42 43 44 45 46 47 48 49 50
000
NZUS43 KILX 301510
HWRILX

AREA WEATHER ROUNDUP
NATIONAL WEATHER SERVICE, LINCOLN IL
1000 AM CDT THU OCT 30 2014


CITY           SKY/WX    TMP DP  RH WIND       PRES   REMARKS
BLOOMINGTON    MOSUNNY   43  38  82 S12       30.15S
CHAMPAIGN      PTSUNNY   46  37  71 S8        30.15F
DECATUR        MOSUNNY   46  37  71 S9        30.16S
FLORA          SUNNY     47  37  68 SE8       30.17F
GALESBURG      CLOUDY    41  38  87 CALM      30.11F
JACKSONVILLE   MOSUNNY   50  39  66 S10       30.13S
LACON          MOSUNNY   44  35  72 SW6       30.13S
LAWRENCEVILLE  SUNNY     47  32  56 CALM      30.19S
LITCHFIELD     PTSUNNY   44  38  80 S8        30.15S
$$


CITY           SKY/WX    TMP DP  RH WIND       PRES   REMARKS
LINCOLN        MOSUNNY   46  38  74 S7        30.14F
MACOMB         CLOUDY    43  38  83 S7        30.13S
MATTOON        MOSUNNY   46  36  68 S9        30.15F
MT CARMEL AP   SUNNY     48  41  76 SE3       30.19S
OLNEY-NOBLE AP SUNNY     46  37  71 CALM      30.18F
PARIS          SUNNY     47  37  67 S6        30.18S
PEORIA         CLOUDY    46  38  73 S8        30.13F
PONTIAC        MOSUNNY   44  38  78 S7        30.15F
RANTOUL        PTSUNNY   46  37  71 S6        30.15F
ROBINSON       SUNNY     47  41  80 CALM      30.19F
SPRINGFIELD    MOSUNNY   49  39  68 S10       30.14F
TAYLORVILLE    MOSUNNY   46  37  71 SE8       30.14F
$$

...REGIONAL REPORTS...


CITY           SKY/WX    TMP DP  RH WIND       PRES   REMARKS
CHICAGO O`HARE PTSUNNY   42  34  73 SW7       30.13F
KANKAKEE       NOT AVBL
MOLINE         CLOUDY    43  36  76 CALM      30.11S
MOUNT VERNON   SUNNY     48  37  66 SE7       30.18S
PITTSFIELD     PTSUNNY   48  40  74 S5        30.13S
QUINCY         LGT RAIN  45  39  79 S14       30.07F
ROCKFORD       CLOUDY    40  34  79 SW3       30.13F
$$


CITY           SKY/WX    TMP DP  RH WIND       PRES   REMARKS
BURLINGTON     CLOUDY    45  38  76 S7        30.09F
CEDAR RAPIDS   LGT RAIN  42  37  82 S12       30.06F
DES MOINES     MOSUNNY   50  38  63 S8        30.02F
KIRKSVILLE     LGT RAIN  44  40  85 S21G28    29.99F
OTTUMWA        PTSUNNY   45  38  76 E8        30.04F
ST LOUIS       PTSUNNY   49  37  63 S6        30.15R
$$


CITY           SKY/WX    TMP DP  RH WIND       PRES   REMARKS
TERRE HAUTE    SUNNY     46  36  68 S3        30.18S
EVANSVILLE     SUNNY     48  38  68 CALM      30.19S
INDIANAPOLIS   MOSUNNY   46  34  62 CALM      30.17S
LAFAYETTE      MOSUNNY   44  36  73 CALM      30.17S
MADISON        CLOUDY    43  34  70 SW5       30.10S
MILWAUKEE      PTSUNNY   42  34  73 SW7       30.11F
$$





USA.gov is the U.S. government's official web portal to all federal, state and local government web resources and services.